TimeCDT,TemperatureF,Dew PointF,Humidity,Sea Level PressureIn,VisibilityMPH,Wind Direction,Wind SpeedMPH,Gust SpeedMPH,PrecipitationIn,Events,Conditions,WindDirDegrees,DateUTC
12:12 AM,59.0,51.8,77,30.16,10.0,SE,13.8,-,N/A,,Overcast,140,2013-05-25 05:12:00
12:32 AM,59.0,50.0,72,30.16,10.0,SE,13.8,20.7,N/A,,Overcast,140,2013-05-25 05:32:00
12:53 AM,59.0,50.0,72,30.15,10.0,SE,12.7,-,N/A,,Overcast,140,2013-05-25 05:53:00
1:12 AM,59.0,50.0,72,30.14,10.0,SE,13.8,19.6,N/A,,Overcast,130,2013-05-25 06:12:00
1:32 AM,59.0,48.2,67,30.12,10.0,SE,12.7,-,N/A,,Overcast,130,2013-05-25 06:32:00
1:52 AM,57.2,50.0,77,30.13,10.0,SE,10.4,-,N/A,,Overcast,130,2013-05-25 06:52:00
2:12 AM,57.2,50.0,77,30.14,10.0,ESE,11.5,-,N/A,,Overcast,120,2013-05-25 07:12:00
2:32 AM,57.2,48.2,72,30.14,10.0,ESE,11.5,-,N/A,,Overcast,110,2013-05-25 07:32:00
2:52 AM,57.2,50.0,77,30.13,10.0,ESE,10.4,18.4,N/A,,Overcast,110,2013-05-25 07:52:00
3:13 AM,57.2,50.0,77,30.13,10.0,ESE,12.7,-,N/A,,Overcast,110,2013-05-25 08:13:00
3:32 AM,57.2,48.2,72,30.13,10.0,ESE,12.7,-,N/A,,Overcast,120,2013-05-25 08:32:00
3:52 AM,57.2,48.2,72,30.14,10.0,ESE,11.5,-,N/A,,Overcast,120,2013-05-25 08:52:00
4:13 AM,55.4,48.2,77,30.13,10.0,ESE,12.7,18.4,N/A,,Overcast,120,2013-05-25 09:13:00
4:32 AM,57.2,48.2,72,30.11,10.0,ESE,16.1,-,N/A,,Overcast,120,2013-05-25 09:32:00
4:52 AM,55.4,48.2,77,30.10,10.0,ESE,15.0,-,N/A,,Mostly Cloudy,110,2013-05-25 09:52:00
5:13 AM,55.4,48.2,77,30.11,10.0,ESE,13.8,-,N/A,,Overcast,110,2013-05-25 10:13:00
5:32 AM,55.4,48.2,77,30.12,10.0,ESE,12.7,18.4,N/A,,Overcast,110,2013-05-25 10:32:00
5:52 AM,55.4,48.2,77,30.13,10.0,ESE,12.7,18.4,N/A,,Overcast,110,2013-05-25 10:52:00
6:13 AM,55.4,48.2,77,30.13,10.0,ESE,13.8,-,N/A,,Overcast,120,2013-05-25 11:13:00
6:32 AM,55.4,48.2,77,30.13,10.0,ESE,16.1,-,N/A,,Overcast,120,2013-05-25 11:32:00
6:52 AM,55.4,48.2,77,30.12,10.0,ESE,13.8,-,N/A,,Overcast,120,2013-05-25 11:52:00
7:13 AM,53.6,48.2,82,30.12,10.0,ESE,17.3,23.0,N/A,,Light Drizzle,120,2013-05-25 12:13:00
7:32 AM,53.6,48.2,82,30.12,10.0,ESE,17.3,23.0,N/A,,Overcast,120,2013-05-25 12:32:00
7:52 AM,53.6,48.2,82,30.14,10.0,ESE,18.4,23.0,N/A,,Overcast,120,2013-05-25 12:52:00
8:13 AM,53.6,48.2,82,30.15,10.0,ESE,18.4,24.2,N/A,,Overcast,120,2013-05-25 13:13:00
8:32 AM,53.6,48.2,82,30.14,10.0,ESE,18.4,24.2,N/A,,Overcast,120,2013-05-25 13:32:00
8:52 AM,53.6,50.0,88,30.14,4.0,ESE,12.7,19.6,N/A,,Overcast,110,2013-05-25 13:52:00
9:13 AM,51.8,50.0,94,30.15,4.0,ESE,16.1,23.0,N/A,,Overcast,110,2013-05-25 14:13:00
9:32 AM,51.8,50.0,94,30.15,7.0,ESE,16.1,23.0,N/A,,Overcast,120,2013-05-25 14:32:00
9:52 AM,51.8,50.0,94,30.15,4.0,ESE,18.4,24.2,N/A,,Overcast,120,2013-05-25 14:52:00
10:13 AM,51.8,50.0,94,30.15,3.0,ESE,17.3,23.0,N/A,,Overcast,120,2013-05-25 15:13:00
10:32 AM,51.8,50.0,94,30.15,2.5,ESE,18.4,25.3,N/A,Rain,Light Rain,120,2013-05-25 15:32:00
10:52 AM,51.8,50.0,94,30.16,2.0,ESE,16.1,21.9,N/A,Rain,Light Rain,120,2013-05-25 15:52:00
11:13 AM,51.8,50.0,94,30.16,1.5,SE,17.3,-,N/A,Rain,Rain,130,2013-05-25 16:13:00
11:32 AM,51.8,50.0,94,30.15,1.5,ESE,19.6,27.6,N/A,Rain,Light Rain,120,2013-05-25 16:32:00
11:52 AM,51.8,50.0,94,30.15,2.0,ESE,17.3,26.5,N/A,Rain,Light Rain,120,2013-05-25 16:52:00
12:13 PM,53.6,51.8,94,30.15,5.0,ESE,17.3,21.9,N/A,,Overcast,120,2013-05-25 17:13:00
12:32 PM,53.6,51.8,94,30.15,5.0,ESE,18.4,21.9,N/A,,Overcast,120,2013-05-25 17:32:00
12:52 PM,53.6,51.8,94,30.15,7.0,ESE,15.0,23.0,N/A,,Overcast,120,2013-05-25 17:52:00
1:13 PM,53.6,51.8,94,30.15,10.0,ESE,15.0,19.6,N/A,,Overcast,120,2013-05-25 18:13:00
1:32 PM,53.6,51.8,94,30.15,10.0,ESE,16.1,-,N/A,,Overcast,120,2013-05-25 18:32:00
1:52 PM,55.4,51.8,88,30.15,10.0,ESE,11.5,20.7,N/A,,Overcast,120,2013-05-25 18:52:00
2:12 PM,55.4,51.8,88,30.15,10.0,ESE,12.7,-,N/A,,Overcast,120,2013-05-25 19:12:00
2:32 PM,55.4,51.8,88,30.15,10.0,ESE,17.3,21.9,N/A,,Overcast,120,2013-05-25 19:32:00
2:53 PM,57.2,53.6,88,30.14,10.0,ESE,17.3,23.0,N/A,,Overcast,120,2013-05-25 19:53:00
3:12 PM,55.4,51.8,88,30.14,10.0,ESE,18.4,26.5,N/A,,Overcast,120,2013-05-25 20:12:00
3:32 PM,55.4,51.8,88,30.14,10.0,ESE,20.7,-,N/A,,Overcast,120,2013-05-25 20:32:00
3:53 PM,55.4,51.8,88,30.14,10.0,ESE,19.6,26.5,N/A,,Overcast,110,2013-05-25 20:53:00
4:12 PM,53.6,51.8,94,30.14,10.0,ESE,19.6,27.6,N/A,,Overcast,120,2013-05-25 21:12:00
4:33 PM,53.6,51.8,94,30.14,10.0,ESE,21.9,27.6,N/A,,Overcast,120,2013-05-25 21:33:00
4:53 PM,53.6,51.8,94,30.14,10.0,SE,19.6,27.6,N/A,,Overcast,130,2013-05-25 21:53:00
5:12 PM,53.6,51.8,94,30.14,10.0,ESE,18.4,27.6,N/A,,Overcast,110,2013-05-25 22:12:00
5:33 PM,53.6,50.0,88,30.14,10.0,ESE,21.9,26.5,N/A,,Overcast,110,2013-05-25 22:33:00
5:52 PM,53.6,50.0,88,30.14,10.0,ESE,19.6,27.6,N/A,,Overcast,110,2013-05-25 22:52:00
6:12 PM,53.6,50.0,88,30.13,10.0,ESE,19.6,27.6,N/A,,Overcast,110,2013-05-25 23:12:00
6:33 PM,51.8,50.0,94,30.14,5.0,ESE,18.4,21.9,N/A,,Overcast,120,2013-05-25 23:33:00
6:52 PM,51.8,50.0,94,30.15,4.0,ESE,20.7,24.2,N/A,,Overcast,120,2013-05-25 23:52:00
7:12 PM,51.8,48.2,88,30.16,4.0,ESE,17.3,26.5,N/A,,Overcast,120,2013-05-26 00:12:00
7:33 PM,51.8,48.2,88,30.15,1.8,ESE,17.3,21.9,N/A,Rain,Light Rain,110,2013-05-26 00:33:00
7:52 PM,51.8,48.2,88,30.15,2.5,ESE,18.4,26.5,N/A,Rain,Light Rain,110,2013-05-26 00:52:00
8:12 PM,51.8,48.2,88,30.15,4.0,ESE,16.1,24.2,N/A,Rain,Light Rain,110,2013-05-26 01:12:00
8:33 PM,51.8,48.2,88,30.15,5.0,ESE,17.3,24.2,N/A,,Overcast,110,2013-05-26 01:33:00
8:52 PM,50.0,48.2,94,30.14,5.0,ESE,20.7,25.3,N/A,,Overcast,110,2013-05-26 01:52:00
9:12 PM,50.0,48.2,94,30.14,5.0,ESE,19.6,26.5,N/A,,Overcast,110,2013-05-26 02:12:00
9:33 PM,50.0,48.2,94,30.14,4.0,ESE,15.0,26.5,N/A,,Overcast,110,2013-05-26 02:33:00
9:52 PM,50.0,48.2,94,30.15,3.0,ESE,16.1,23.0,N/A,Rain,Light Rain,110,2013-05-26 02:52:00
10:12 PM,50.0,48.2,94,30.17,3.0,ESE,19.6,26.5,N/A,Rain,Light Rain,110,2013-05-26 03:12:00
10:33 PM,50.0,48.2,94,30.16,3.0,ESE,17.3,25.3,N/A,Rain,Light Rain,110,2013-05-26 03:33:00
10:52 PM,50.0,48.2,94,30.15,4.0,ESE,23.0,27.6,N/A,Rain,Light Rain,120,2013-05-26 03:52:00
11:12 PM,50.0,48.2,94,30.15,4.0,ESE,16.1,23.0,N/A,,Light Drizzle,120,2013-05-26 04:12:00
11:33 PM,50.0,48.2,94,30.14,5.0,ESE,19.6,28.8,N/A,,Overcast,120,2013-05-26 04:33:00
11:52 PM,50.0,48.2,94,30.12,4.0,ESE,17.3,25.3,N/A,,Overcast,120,2013-05-26 04:52:00